Home > Weather > Barcelona > Past weeks

Flag for Spain Weather for the Past 2 Weeks in Barcelona, Barcelona, Spain

Now
61 °F

Passing clouds.


Feels Like: 61 °F
Forecast: 51 / 61 °F
Wind: 10 mph from Southwest

Location: Barcelona Airport

Current Time: Feb 13, 2016 at 10:48:49 PM

Latest Report: Feb 13, 2016 at 10:00 PM


Visibility: N/A

Pressure: 29.50 "Hg

Humidity: 77%

Dew point: 54 °F

Location of BarcelonaLocation

Historic Weather in Barcelona — Graph

°F

Barcelona Temperature Yesterday

Maximum temperature yesterday: 64 °F (at 4:30 PM)
Minimum temperature yesterday: 50 °F (at 12:00 AM)
Average temperature yesterday: 56 °F

High & Low Weather Summary for the Past Weeks

 TemperatureHumidityPressure
High72 °F (Feb 13, 1:30 PM)100% (Feb 7, 6:00 AM)30.60 "Hg (Feb 7, 6:00 AM)
Low43 °F (Feb 4, 7:30 AM)37% (Feb 9, 10:00 PM)29.50 "Hg (Feb 13, 9:00 PM)
Average55 °F71%30.11 "Hg
* Reported Jan 29 9:00 PM — Feb 13 9:30 PM, Barcelona, Weather by CustomWeather, © 2016

Note: Actual official high and low records may vary slightly from our data, if they occured in-between our weather recording intervals... More about our weather records

Advertising

Barcelona Weather History for the Previous 24 Hours

 ConditionsComfort  
Time TempWeatherWind HumidityBarometerVisibility
9:30 PM
Sat, Feb 13
64 °FPassing clouds.5 mph60%29.50 "HgN/A
9:00 PM64 °FPassing clouds.6 mph60%29.50 "HgN/A
8:30 PM66 °FPassing clouds.10 mph52%29.53 "HgN/A
8:00 PM63 °FPassing clouds.9 mph73%29.53 "HgN/A
7:46 PM63 °FPassing clouds.10 mph73%29.53 "HgN/A
7:30 PM63 °FPassing clouds.10 mph73%29.53 "HgN/A
7:00 PM63 °FPassing clouds.15 mph73%29.53 "HgN/A
6:30 PM63 °FPassing clouds.18 mph73%29.53 "HgN/A
6:00 PM64 °FPassing clouds.17 mph64%29.53 "HgN/A
5:30 PM63 °FPassing clouds.18 mph73%29.53 "HgN/A
5:00 PM64 °FPassing clouds.21 mph68%29.53 "HgN/A
4:30 PM68 °FPassing clouds.18 mph56%29.53 "HgN/A
4:00 PM68 °FPassing clouds.20 mph56%29.56 "HgN/A
3:30 PM70 °FPassing clouds.22 mph50%29.56 "HgN/A
3:00 PM72 °FPassing clouds.24 mph47%29.56 "HgN/A
2:30 PM72 °FPassing clouds.22 mph44%29.56 "HgN/A
2:00 PM72 °FPassing clouds.22 mph41%29.56 "HgN/A
1:30 PM72 °FPassing clouds.22 mph41%29.56 "HgN/A
1:00 PM70 °FPassing clouds.23 mph50%29.59 "HgN/A
12:30 PM68 °FPassing clouds.18 mph56%29.59 "HgN/A
12:00 PM70 °FPassing clouds.14 mph57%29.59 "HgN/A
11:30 AM63 °FPassing clouds.21 mph77%29.59 "HgN/A
11:00 AM63 °FPassing clouds.20 mph73%29.59 "HgN/A
10:30 AM64 °FPassing clouds.17 mph68%29.56 "HgN/A
10:00 AM64 °FPassing clouds.15 mph68%29.59 "HgN/A
9:30 AM64 °FPassing clouds.14 mph68%29.59 "HgN/A
9:00 AM63 °FPassing clouds.13 mph73%29.59 "HgN/A
8:30 AM61 °FPassing clouds.9 mph72%29.59 "HgN/A
8:00 AM61 °FPassing clouds.10 mph77%29.56 "HgN/A
7:30 AM61 °FPassing clouds.14 mph72%29.56 "HgN/A
7:00 AM61 °FPassing clouds.12 mph72%29.56 "HgN/A
6:30 AM61 °FPassing clouds.13 mph72%29.56 "HgN/A
6:00 AM59 °FPassing clouds.13 mph77%29.56 "HgN/A
5:30 AM61 °FPassing clouds.12 mph72%29.56 "HgN/A
5:00 AM61 °FPassing clouds.12 mph72%29.56 "HgN/A
4:30 AM61 °FPassing clouds.13 mph77%29.56 "HgN/A
4:00 AM61 °FPassing clouds.10 mph77%29.56 "HgN/A
3:30 AM61 °FPassing clouds.14 mph83%29.56 "HgN/A
3:00 AM61 °FPassing clouds.15 mph83%29.56 "HgN/A
2:30 AM57 °FPassing clouds.5 mph88%29.59 "HgN/A
2:00 AM57 °FPassing clouds.1 mph82%29.59 "HgN/A
1:30 AM57 °FPassing clouds.3 mph82%29.62 "HgN/A
1:00 AM59 °FPassing clouds.5 mph77%29.62 "HgN/A
12:30 AM61 °FPassing clouds.1 mph72%29.62 "HgN/A
12:00 AM61 °FPassing clouds.2 mph77%29.62 "HgN/A
11:30 PM
Fri, Feb 12
61 °FPassing clouds.5 mph72%29.59 "HgN/A
11:00 PM59 °FPassing clouds.12 mph82%29.59 "HgN/A
10:30 PM63 °FPassing clouds.7 mph73%29.59 "HgN/A
10:00 PM63 °FPassing clouds.6 mph68%29.59 "HgN/A
Weather by CustomWeather, © 2016

See weather overviewHow to use our weather pages